Location: Bellerive
(46.9237°N, 7.0223°E)
Time: 18:22:28
(UTC+00:00)

Meteor 2-17 Rocket - Pass Details

Date: 09 April 2020
Orbit: 935 x 956 km, 82.5° (Epoch: 24 May)

Event Time Altitude Azimuth Distance (km) Brightness Sun altitude
Rises 18:58:09 0° 352° (N) 3,643 7.9 -8.2°
Reaches altitude 10° 19:00:41 10° 355° (N) 2,695 7.2 -8.7°
Maximum altitude 19:06:50 71° 79° (ENE) 1,013 4.5 -9.6°
Drops below altitude 10° 19:12:58 10° 163° (SSE) 2,679 6.4 -10.6°
Sets 19:15:28 0° 166° (SSE) 3,619 7.1 -11.0°
